DW9356 Weather Reports


Display with metric or nautical units.
time (UTC)temp
F
wind
direction
speed
MPH
gust
MPH
rain 1hr
in
rain 24hr
in
rain mn
in
humidity
%
barometer
mb
20260905052816 80 185 0.0 0.0 0.00 0.02 0.00 92 1013.0
20260905052316 80 185 0.0 0.0 0.00 0.02 0.00 91 1013.1
20260905051814 80 185 0.0 0.0 0.00 0.02 0.00 91 1013.2
20260905051259 80 185 0.0 0.0 0.00 0.02 0.00 91 1013.1
20260905050734 80 185 0.0 0.0 0.00 0.02 0.00 91 1013.2
20260905050236 80 185 0.0 0.0 0.00 0.02 0.00 91 1013.2
20260905045727 80 185 0.0 0.0 0.00 0.02 0.02 91 1013.1
20260905045229 80 185 0.0 0.0 0.00 0.02 0.02 90 1013.1
20260905044706 80 185 0.0 0.0 0.00 0.02 0.02 90 1013.1
20260905044139 80 185 0.0 0.0 0.00 0.02 0.02 90 1013.1
20260905043612 80 185 0.0 0.0 0.00 0.02 0.02 90 1013.1
20260905043108 80 185 0.0 0.0 0.00 0.02 0.02 90 1013.0
20260905042828 80 185 0.0 0.0 0.00 0.02 0.02 90 1013.1
20260905042259 80 185 0.0 0.0 0.00 0.02 0.02 89 1013.2
20260905041535 80 185 0.0 0.0 0.00 0.02 0.02 89 1013.1
20260905041255 80 185 0.0 1.0 0.00 0.02 0.02 89 1013.1
20260905040524 80 185 0.0 2.0 0.00 0.02 0.02 89 1013.1
20260905040023 80 186 0.0 2.0 0.00 0.02 0.02 89 1013.1
20260905035524 80 178 0.0 0.0 0.00 0.02 0.02 89 1013.2
20260905034951 80 178 0.0 1.0 0.00 0.02 0.02 89 1013.2
20260905034422 80 178 0.0 1.0 0.00 0.02 0.02 89 1013.2
20260905034143 80 178 0.0 1.0 0.00 0.02 0.02 88 1013.3
20260905033352 80 178 0.0 1.0 0.00 0.02 0.02 88 1013.3
20260905032851 80 178 0.0 1.0 0.00 0.02 0.02 88 1013.2
20260905032544 80 178 0.0 1.0 0.00 0.02 0.02 88 1013.2
20260905031820 80 178 0.0 0.0 0.00 0.02 0.02 87 1013.4
20260905031316 80 177 0.0 0.0 0.00 0.02 0.02 87 1013.4
20260905030814 80 178 0.0 0.0 0.00 0.02 0.02 86 1013.4
20260905030247 80 178 0.0 0.0 0.00 0.02 0.02 86 1013.4
20260905025745 80 177 0.0 0.0 0.00 0.02 0.02 86 1013.3
20260905025216 80 178 0.0 0.0 0.00 0.02 0.02 85 1013.2
20260905024715 80 177 0.0 0.0 0.00 0.02 0.02 85 1013.2
20260905024147 80 178 0.0 0.0 0.00 0.02 0.02 85 1013.2
20260905023642 80 177 0.0 0.0 0.00 0.02 0.02 84 1013.1
20260905023141 81 178 0.0 0.0 0.00 0.02 0.02 84 1013.1
20260905022637 81 178 0.0 0.0 0.00 0.02 0.02 83 1013.0
20260905022131 81 178 0.0 0.0 0.00 0.02 0.02 83 1013.0
20260905021605 81 178 0.0 0.0 0.00 0.02 0.02 82 1013.0
20260905021101 81 177 0.0 0.0 0.00 0.02 0.02 82 1012.9
20260905020534 81 178 0.0 0.0 0.00 0.02 0.02 81 1012.8
20260905020032 81 178 0.0 0.0 0.00 0.02 0.02 81 1012.8
20260905015504 82 178 0.0 0.0 0.00 0.02 0.02 81 1012.5
20260905015226 82 178 0.0 0.0 0.00 0.02 0.02 80 1012.5
20260905014435 82 178 0.0 1.0 0.00 0.02 0.02 80 1012.6
20260905014148 82 178 0.0 3.0 0.00 0.02 0.02 79 1012.5
20260905013823 83 178 1.0 4.0 0.00 0.02 0.02 79 1012.4
20260905013446 82 177 1.0 3.0 0.00 0.02 0.02 79 1012.5
20260905012354 83 198 1.0 4.0 0.00 0.02 0.02 79 1012.4
20260905011826 83 187 1.0 4.0 0.00 0.02 0.02 79 1012.5
20260905011548 84 186 2.0 6.0 0.00 0.02 0.02 79 1012.4
20260905010756 84 148 2.0 6.0 0.00 0.02 0.02 81 1012.4
20260905010256 85 198 2.0 7.0 0.00 0.02 0.02 80 1012.4
20260905005757 85 161 1.0 7.0 0.00 0.02 0.02 79 1012.4
20260905005503 85 147 0.0 3.0 0.00 0.02 0.02 78 1012.2
20260905005237 85 85 0.0 1.0 0.00 0.02 0.02 77 1012.1
20260905004214 86 85 0.0 2.0 0.00 0.02 0.02 76 1012.0
20260905003710 86 85 0.0 2.0 0.00 0.02 0.02 76 1012.1
20260905003144 86 84 0.0 5.0 0.00 0.02 0.02 76 1012.0
20260905002642 86 84 0.0 5.0 0.00 0.02 0.02 75 1011.8
20260905002140 87 83 1.0 5.0 0.00 0.02 0.02 74 1011.8
20260905001853 87 80 1.0 5.0 0.00 0.02 0.02 74 1011.8
20260905001129 87 134 1.0 3.0 0.00 0.02 0.02 74 1011.7
20260905000603 87 142 0.0 3.0 0.00 0.02 0.02 74 1011.7
20260905000100 87 143 1.0 5.0 0.00 0.02 0.02 74 1011.7
20260904235546 87 150 1.0 5.0 0.00 0.02 0.02 74 1011.8
20260904235046 87 112 1.0 5.0 0.00 0.02 0.02 74 1011.8
20260904234547 87 75 1.0 5.0 0.00 0.02 0.02 73 1011.8
20260904234241 87 84 1.0 6.0 0.00 0.02 0.02 73 1011.9
20260904233517 87 84 2.0 8.0 0.00 0.02 0.02 74 1011.8
20260904233014 87 74 1.0 8.0 0.00 0.02 0.02 76 1011.9
20260904232730 87 83 1.0 6.0 0.00 0.02 0.02 77 1011.9
20260904232010 87 34 1.0 4.0 0.00 0.02 0.02 77 1011.8
20260904231504 87 109 0.0 3.0 0.00 0.02 0.02 77 1011.7
20260904231002 87 84 1.0 5.0 0.00 0.02 0.02 76 1011.8
20260904230434 87 84 1.0 5.0 0.00 0.02 0.02 75 1011.7
20260904230156 87 61 1.0 8.0 0.00 0.02 0.02 74 1011.8
20260904225404 87 60 2.0 8.0 0.00 0.02 0.02 74 1011.8
20260904224836 87 90 2.0 8.0 0.00 0.02 0.02 74 1011.8
20260904224311 88 75 1.0 8.0 0.00 0.02 0.02 73 1011.8
20260904223804 88 65 1.0 5.0 0.00 0.02 0.02 74 1011.8
20260904223302 89 78 1.0 7.0 0.00 0.02 0.02 73 1011.8
20260904222732 90 79 2.0 7.0 0.00 0.02 0.02 72 1011.9
20260904222228 91 65 2.0 11.0 0.00 0.02 0.02 72 1012.0
20260904221726 92 82 3.0 11.0 0.00 0.02 0.02 70 1012.1
20260904221159 92 86 2.0 5.0 0.00 0.02 0.02 68 1012.0
20260904220656 92 24 1.0 4.0 0.00 0.02 0.02 70 1012.0
20260904220153 92 11 1.0 4.0 0.00 0.02 0.02 69 1012.0
20260904215649 92 129 1.0 3.0 0.00 0.02 0.02 68 1012.1
20260904215129 92 134 1.0 3.0 0.00 0.02 0.02 71 1012.2
20260904214630 92 70 0.0 2.0 0.00 0.02 0.02 70 1012.0
20260904214346 91 71 1.0 2.0 0.00 0.02 0.02 71 1011.9
20260904213627 91 71 1.0 3.0 0.00 0.02 0.02 71 1012.0
20260904213130 91 53 1.0 4.0 0.00 0.02 0.02 71 1012.0
20260904212603 91 155 1.0 4.0 0.00 0.02 0.02 71 1012.1
20260904212036 90 277 1.0 3.0 0.00 0.02 0.02 71 1012.1
20260904211508 91 199 0.0 2.0 0.00 0.02 0.02 71 1012.2
20260904210943 90 198 1.0 3.0 0.00 0.02 0.02 72 1012.2
20260904210417 91 170 1.0 3.0 0.00 0.02 0.02 72 1012.4
20260904205851 91 126 1.0 3.0 0.00 0.02 0.02 70 1012.5
20260904205347 91 308 1.0 5.0 0.00 0.02 0.02 71 1012.6
20260904204840 91 296 1.0 5.0 0.00 0.02 0.02 70 1012.8
20260904204338 92 139 1.0 4.0 0.00 0.02 0.02 70 1012.8
20260904203811 91 177 1.0 4.0 0.00 0.02 0.02 70 1013.0
20260904203251 91 282 1.0 3.0 0.00 0.02 0.02 73 1013.1
20260904202720 90 217 2.0 5.0 0.00 0.03 0.02 75 1013.1
20260904202639 89 142 2.0 5.0 0.00 0.03 0.02 74 1013.2
20260904201650 89 195 2.0 4.0 0.00 0.03 0.02 75 1013.2
20260904201123 89 278 1.0 4.0 0.00 0.03 0.02 76 1013.2
20260904200618 89 292 1.0 4.0 0.00 0.04 0.02 74 1013.2
20260904200318 89 293 1.0 5.0 0.00 0.05 0.02 74 1013.3
20260904195548 88 195 1.0 5.0 0.00 0.06 0.02 78 1013.4
20260904195045 86 198 1.0 5.0 0.00 0.07 0.02 79 1013.4
20260904194519 85 139 1.0 5.0 0.00 0.07 0.02 82 1013.4
20260904194234 85 190 0.0 3.0 0.00 0.07 0.02 84 1013.5
20260904193513 84 153 0.0 2.0 0.00 0.07 0.02 83 1013.5
20260904192946 84 152 1.0 5.0 0.00 0.07 0.02 82 1013.4
20260904192444 84 150 1.0 5.0 0.00 0.07 0.02 84 1013.5
20260904191918 83 88 1.0 5.0 0.00 0.08 0.02 84 1013.7
20260904191414 83 98 1.0 5.0 0.00 0.08 0.02 84 1013.8
20260904190911 83 74 1.0 6.0 0.00 0.10 0.02 84 1013.9
20260904190345 82 42 0.0 6.0 0.00 0.14 0.02 84 1014.0
20260904185820 82 79 0.0 2.0 0.00 0.18 0.02 84 1014.2
20260904185514 82 75 0.0 3.0 0.00 0.21 0.02 84 1014.2
20260904184749 82 74 0.0 3.0 0.00 0.21 0.02 84 1014.4
20260904184501 82 74 1.0 5.0 0.00 0.21 0.02 84 1014.5
20260904183739 81 72 0.0 5.0 0.00 0.21 0.02 85 1014.7
20260904183436 81 125 0.0 0.0 0.00 0.21 0.02 86 1014.6
20260904182927 80 125 0.0 3.0 0.00 0.21 0.02 85 1014.6
20260904182144 80 125 1.0 3.0 0.00 0.21 0.02 86 1014.8
20260904181617 80 331 1.0 3.0 0.00 0.21 0.02 85 1015.0
20260904181050 79 322 1.0 4.0 0.00 0.21 0.02 86 1015.0
20260904180548 79 221 0.0 4.0 0.00 0.21 0.02 87 1015.1
20260904180020 79 194 0.0 5.0 0.00 0.21 0.02 87 1015.1
20260904175738 79 271 0.0 3.0 0.00 0.21 0.02 86 1014.9
20260904174950 79 317 1.0 3.0 0.00 0.21 0.02 84 1015.0
20260904174447 79 320 1.0 6.0 0.00 0.21 0.02 83 1015.1
20260904173944 80 78 1.0 6.0 0.00 0.21 0.02 81 1015.4
20260904173441 82 195 2.0 7.0 0.00 0.21 0.02 78 1015.4
20260904173419 84 146 2.0 7.0 0.00 0.21 0.02 75 1015.4
20260904172656 86 0 2.0 8.0 0.00 0.21 0.02 73 1015.6
20260904171930 89 71 2.0 8.0 0.00 0.21 0.02 73 1015.4
20260904171427 91 191 2.0 7.0 0.00 0.21 0.02 79 1015.2
20260904170924 91 187 2.0 7.0 0.00 0.21 0.02 78 1015.1
20260904170422 91 105 2.0 5.0 0.00 0.21 0.02 79 1015.1
20260904165855 91 144 2.0 7.0 0.00 0.21 0.02 79 1014.9
20260904165328 91 92 1.0 7.0 0.00 0.21 0.02 78 1014.8
20260904165046 91 92 1.0 4.0 0.00 0.21 0.02 79 1014.7
20260904164320 91 130 1.0 4.0 0.00 0.21 0.02 77 1014.7
20260904163755 91 101 2.0 4.0 0.00 0.21 0.02 76 1014.8
20260904163254 92 342 2.0 4.0 0.00 0.21 0.02 73 1014.8
20260904162754 93 69 2.0 6.0 0.00 0.21 0.02 74 1014.7
20260904162244 93 98 2.0 6.0 0.00 0.21 0.02 74 1014.6
20260904161741 92 77 1.0 5.0 0.00 0.21 0.02 76 1014.5
20260904161215 92 132 1.0 5.0 0.00 0.21 0.02 75 1014.4
20260904160648 91 31 2.0 5.0 0.00 0.21 0.02 76 1014.3
20260904160146 91 157 1.0 5.0 0.00 0.21 0.02 78 1014.4
20260904155619 90 146 0.0 5.0 0.00 0.21 0.02 80 1014.4
20260904155116 90 157 0.0 4.0 0.00 0.21 0.02 79 1014.4
20260904154612 90 156 0.0 4.0 0.00 0.21 0.02 77 1014.4
20260904154110 90 157 1.0 5.0 0.00 0.21 0.02 79 1014.3
20260904153826 90 156 1.0 5.0 0.00 0.21 0.02 80 1014.3
20260904153324 89 72 1.0 4.0 0.00 0.21 0.02 83 1014.4
20260904153020 89 170 1.0 4.0 0.00 0.21 0.02 85 1014.4
20260904152034 88 147 1.0 3.0 0.00 0.21 0.02 88 1014.3
20260904151754 87 141 1.0 5.0 0.00 0.21 0.02 90 1014.2
20260904151004 86 144 1.0 5.0 0.00 0.21 0.02 94 1014.3
20260904150503 85 134 1.0 5.0 0.00 0.21 0.02 96 1014.3
20260904145935 84 170 1.0 5.0 0.00 0.21 0.02 97 1014.2
20260904145420 83 94 1.0 5.0 0.00 0.21 0.02 98 1014.3
20260904145145 83 92 0.0 5.0 0.00 0.21 0.02 98 1014.3
20260904144354 83 155 0.0 2.0 0.00 0.21 0.02 98 1014.3
20260904143852 83 155 0.0 3.0 0.00 0.21 0.02 98 1014.4
20260904143326 82 147 1.0 6.0 0.00 0.21 0.02 99 1014.3
20260904142800 82 76 1.0 6.0 0.00 0.21 0.02 99 1014.2
20260904142233 81 82 1.0 3.0 0.00 0.21 0.02 99 1014.2
20260904141729 81 83 1.0 3.0 0.00 0.21 0.02 99 1014.2
20260904141224 81 80 1.0 3.0 0.00 0.21 0.02 98 1014.2
20260904140721 80 79 1.0 4.0 0.00 0.21 0.02 98 1014.2
20260904140440 80 79 1.0 4.0 0.00 0.21 0.02 98 1014.2
20260904135937 80 86 0.0 3.0 0.00 0.21 0.02 98 1014.2
20260904135149 80 92 0.0 1.0 0.00 0.21 0.02 98 1014.2
20260904134648 80 92 0.0 0.0 0.00 0.21 0.02 98 1014.0
20260904134120 80 92 0.0 0.0 0.00 0.21 0.02 98 1014.0
20260904133619 80 92 0.0 3.0 0.00 0.21 0.02 98 1014.1
20260904133339 80 92 0.0 3.0 0.00 0.21 0.02 98 1014.1
20260904132549 80 105 0.0 1.0 0.00 0.21 0.02 98 1014.1
20260904132246 80 105 0.0 1.0 0.00 0.21 0.02 98 1014.0
20260904131519 80 106 0.0 2.0 0.00 0.21 0.02 98 1014.0
20260904131012 80 106 0.0 2.0 0.00 0.21 0.02 98 1013.9
20260904130509 79 106 0.0 2.0 0.00 0.21 0.02 98 1013.9
20260904130228 79 107 0.0 2.0 0.00 0.21 0.02 98 1013.9
20260904125727 79 107 0.0 2.0 0.00 0.21 0.02 98 1013.8
20260904124937 79 110 0.0 1.0 0.00 0.21 0.02 98 1013.7
20260904124410 79 111 0.0 1.0 0.00 0.21 0.02 98 1013.6
20260904123904 79 111 0.0 1.0 0.00 0.21 0.02 98 1013.5
20260904123555 79 111 0.0 1.0 0.00 0.21 0.02 98 1013.4
20260904122822 79 111 0.0 1.0 0.00 0.21 0.02 98 1013.4
20260904122319 79 111 0.0 1.0 0.00 0.21 0.02 98 1013.3
20260904121820 79 111 0.0 1.0 0.00 0.21 0.02 98 1013.3
20260904121318 79 111 0.0 0.0 0.00 0.21 0.02 98 1013.1
20260904121025 79 111 0.0 0.0 0.00 0.21 0.02 97 1013.2
20260904120306 79 111 0.0 0.0 0.00 0.21 0.02 97 1013.1
20260904115741 79 111 0.0 0.0 0.00 0.21 0.02 97 1013.0
20260904115214 79 111 0.0 0.0 0.00 0.21 0.02 97 1013.0
20260904114711 79 111 0.0 1.0 0.00 0.21 0.02 97 1012.9
20260904114145 79 111 0.0 1.0 0.00 0.21 0.02 97 1013.0
20260904113905 79 111 0.0 0.0 0.00 0.21 0.02 97 1013.0
20260904113335 79 111 0.0 1.0 0.00 0.21 0.02 97 1012.9
20260904112612 79 111 0.0 0.0 0.00 0.21 0.02 97 1013.0
20260904112044 79 111 0.0 0.0 0.00 0.21 0.02 97 1013.0
20260904111542 79 111 0.0 0.0 0.00 0.21 0.02 97 1013.1
20260904111015 79 111 0.0 1.0 0.00 0.21 0.02 97 1013.1
20260904110511 79 111 0.0 1.0 0.01 0.21 0.02 97 1013.0
20260904110205 79 111 0.0 1.0 0.01 0.21 0.02 97 1013.0
20260904105442 80 111 0.0 1.0 0.02 0.21 0.02 97 1012.9
20260904104940 79 111 0.0 1.0 0.02 0.21 0.02 97 1012.9
20260904104413 79 111 0.0 1.0 0.02 0.21 0.02 97 1012.8
20260904103910 79 111 0.0 0.0 0.02 0.21 0.02 97 1012.8
20260904103404 79 111 0.0 0.0 0.02 0.21 0.02 97 1012.7
20260904102903 79 111 0.0 0.0 0.02 0.21 0.02 97 1012.6
20260904102622 79 111 0.0 0.0 0.02 0.21 0.02 97 1012.5
20260904101856 79 111 0.0 0.0 0.02 0.21 0.02 97 1012.5
20260904101553 79 111 0.0 0.0 0.02 0.21 0.02 97 1012.5
20260904100802 79 111 0.0 0.0 0.02 0.21 0.02 97 1012.5
20260904100527 79 111 0.0 0.0 0.01 0.20 0.01 97 1012.5
20260904095734 79 111 0.0 0.0 0.00 0.19 0.00 97 1012.5
20260904095206 79 111 0.0 0.0 0.00 0.19 0.00 97 1012.5
20260904094704 79 111 0.0 0.0 0.00 0.19 0.00 97 1012.5
20260904094201 79 111 0.0 0.0 0.00 0.19 0.00 97 1012.4
20260904093658 79 111 0.0 0.0 0.00 0.19 0.00 97 1012.5
20260904093132 79 111 0.0 0.0 0.00 0.19 0.00 97 1012.5
20260904092604 79 111 0.0 0.0 0.00 0.19 0.00 97 1012.5
20260904092102 79 111 0.0 0.0 0.00 0.19 0.00 97 1012.4
20260904091535 79 111 0.0 0.0 0.00 0.19 0.00 97 1012.4
20260904091507 79 111 0.0 0.0 0.00 0.19 0.00 97 1012.4
20260904090503 79 111 0.0 0.0 0.00 0.19 0.00 97 1012.4
20260904090000 79 111 0.0 0.0 0.00 0.19 0.00 97 1012.4
20260904085456 79 111 0.0 0.0 0.00 0.19 0.00 97 1012.4
20260904085215 79 111 0.0 0.0 0.00 0.19 0.00 97 1012.4
20260904084711 79 111 0.0 0.0 0.00 0.19 0.00 97 1012.4
20260904083944 79 111 0.0 0.0 0.00 0.19 0.00 97 1012.4
20260904083708 79 111 0.0 0.0 0.00 0.19 0.00 97 1012.4
20260904082946 79 111 0.0 0.0 0.00 0.19 0.00 97 1012.4
20260904082446 79 111 0.0 0.0 0.00 0.19 0.00 97 1012.4
20260904081943 79 111 0.0 0.0 0.00 0.19 0.00 97 1012.4
20260904081446 79 111 0.0 0.0 0.00 0.19 0.00 97 1012.4
20260904080919 80 111 0.0 0.0 0.00 0.19 0.00 97 1012.4
20260904080415 80 111 0.0 0.0 0.00 0.19 0.00 97 1012.4
20260904075850 80 111 0.0 0.0 0.00 0.19 0.00 97 1012.5
20260904075547 80 111 0.0 0.0 0.00 0.19 0.00 97 1012.5
20260904074821 80 111 0.0 0.0 0.00 0.19 0.00 97 1012.5
20260904074318 80 111 0.0 0.0 0.00 0.19 0.00 96 1012.6
20260904073752 80 111 0.0 0.0 0.00 0.19 0.00 97 1012.7
20260904073226 80 111 0.0 0.0 0.00 0.19 0.00 96 1012.8
20260904072703 80 111 0.0 0.0 0.00 0.19 0.00 97 1012.7
20260904072129 80 111 0.0 0.0 0.00 0.19 0.00 96 1012.8
20260904071609 80 111 0.0 0.0 0.00 0.19 0.00 97 1012.8
20260904071107 80 111 0.0 0.0 0.00 0.19 0.00 97 1012.7
20260904070552 80 111 0.0 0.0 0.00 0.19 0.00 96 1012.7
20260904065905 80 111 0.0 2.0 0.00 0.19 0.00 97 1012.8
20260904065353 80 111 0.0 2.0 0.00 0.19 0.00 97 1012.8
20260904064856 80 111 0.0 1.0 0.00 0.19 0.00 96 1012.8
20260904064553 80 111 0.0 1.0 0.00 0.19 0.00 96 1012.8
20260904064049 80 111 0.0 0.0 0.00 0.19 0.00 96 1012.8
20260904063258 80 111 0.0 0.0 0.00 0.19 0.00 96 1012.8
20260904062754 80 111 0.0 0.0 0.00 0.19 0.00 96 1012.8
20260904062249 80 111 0.0 1.0 0.00 0.19 0.00 96 1012.8
20260904061745 80 111 0.0 1.0 0.00 0.19 0.00 96 1012.9
20260904061240 80 111 0.0 0.0 0.00 0.19 0.00 96 1012.9
20260904060714 80 111 0.0 0.0 0.00 0.19 0.00 96 1012.9
20260904060419 80 111 0.0 0.0 0.00 0.19 0.00 96 1012.9
20260904055620 80 111 0.0 0.0 0.00 0.19 0.00 96 1012.9
20260904055341 80 111 0.0 0.0 0.00 0.19 0.00 96 1012.9
20260904054614 80 111 0.0 0.0 0.00 0.19 0.00 96 1012.9
20260904054112 80 111 0.0 0.0 0.00 0.19 0.00 96 1012.9
20260904053607 80 111 0.0 0.0 0.00 0.19 0.00 96 1012.9
20260904053107 80 111 0.0 0.0 0.00 0.19 0.00 96 1012.8